"Period start","avg(HW err(1)/warn(2) (#))","avg(Visibility (m))","avg(Weather code (#))","avg(Precip intensity (mm/h))","min(HW err(1)/warn(2) (#))","max(HW err(1)/warn(2) (#))","std(HW err(1)/warn(2) (#))","med(HW err(1)/warn(2) (#))","min(Visibility (m))","max(Visibility (m))","std(Visibility (m))","med(Visibility (m))","min(Weather code (#))","max(Weather code (#))","std(Weather code (#))","med(Weather code (#))","min(Precip intensity (mm/h))","max(Precip intensity (mm/h))","std(Precip intensity (mm/h))","med(Precip intensity (mm/h))"
2016-09-12 00:00:00,0,42971,43,0.11,0,0,0,0,31062,50000,6873,44064,0,61,22,51,0.00,0.75,0.22,0.00
2016-09-12 00:10:00,0,43913,60,1.11,0,0,0,0,34341,50000,6295,47009,51,61,3,61,0.00,5.00,1.53,0.30
2016-09-12 00:20:00,0,43066,61,2.33,0,0,0,0,32970,50000,6345,44204,61,61,0,61,0.00,7.70,2.32,1.50
2016-09-12 00:30:00,0,39888,43,1.99,0,0,0,0,28977,50000,7682,39893,0,61,28,61,0.00,6.85,2.65,0.00
2016-09-12 00:40:00,0,43516,61,0.79,0,0,0,0,35056,50000,4807,44076,61,61,0,61,0.00,3.10,1.03,0.22
2016-09-12 00:50:00,0,45601,6,0.00,0,0,0,0,38095,50000,3677,45882,0,61,18,0,0.00,0.00,0.00,0.00
2016-09-12 01:00:00,0,43814,0,0.00,0,0,0,0,33144,50000,5437,43621,0,0,0,0,0.00,0.00,0.00,0.00
2016-09-12 01:10:00,0,49455,0,0.00,0,0,0,0,47895,50000,856,50000,0,0,0,0,0.00,0.00,0.00,0.00
2016-09-12 01:20:00,0,46840,0,0.00,0,0,0,0,43758,50000,2504,46232,0,0,0,0,0.00,0.00,0.00,0.00
2016-09-12 01:30:00,0,44583,0,0.00,0,0,0,0,34901,49559,4112,44658,0,0,0,0,0.00,0.00,0.00,0.00
2016-09-12 01:40:00,0,49027,0,0.00,0,0,0,0,45656,50000,1531,49974,0,0,0,0,0.00,0.00,0.00,0.00
2016-09-12 01:50:00,0,47284,0,0.00,0,0,0,0,40425,50000,2923,48290,0,0,0,0,0.00,0.00,0.00,0.00
2016-09-12 02:00:00,0,46945,0,0.00,0,0,0,0,41224,50000,2701,47333,0,0,0,0,0.00,0.00,0.00,0.00
2016-09-12 02:10:00,0,41260,0,0.00,0,0,0,0,31657,49000,6043,41920,0,0,0,0,0.00,0.00,0.00,0.00
2016-09-12 02:20:00,0,47838,0,0.00,0,0,0,0,42216,50000,2615,48928,0,0,0,0,0.00,0.00,0.00,0.00
2016-09-12 02:30:00,0,45742,0,0.00,0,0,0,0,42001,50000,3057,44982,0,0,0,0,0.00,0.00,0.00,0.00
2016-09-12 02:40:00,1,42895,0,0.00,0,2,1,0,33505,50000,5310,42550,0,0,0,0,0.00,0.00,0.00,0.00
2016-09-12 02:50:00,0,47706,0,0.00,0,0,0,0,45490,50000,1770,47354,0,0,0,0,0.00,0.00,0.00,0.00
2016-09-12 03:00:00,0,48253,0,0.00,0,0,0,0,43428,50000,2046,49144,0,0,0,0,0.00,0.00,0.00,0.00
2016-09-12 03:10:00,0,47716,0,0.00,0,0,0,0,42773,50000,2400,48644,0,0,0,0,0.00,0.00,0.00,0.00
2016-09-12 03:20:00,0,49451,0,0.00,0,0,0,0,46593,50000,1039,50000,0,0,0,0,0.00,0.00,0.00,0.00
2016-09-12 03:30:00,0,49715,0,0.00,0,0,0,0,47689,50000,684,50000,0,0,0,0,0.00,0.00,0.00,0.00
2016-09-12 03:40:00,0,47096,0,0.00,0,0,0,0,42592,50000,2684,47761,0,0,0,0,0.00,0.00,0.00,0.00
2016-09-12 03:50:00,0,47164,0,0.00,0,0,0,0,41532,50000,2757,47426,0,0,0,0,0.00,0.00,0.00,0.00
2016-09-12 04:00:00,0,48497,0,0.00,0,0,0,0,45418,50000,1596,49031,0,0,0,0,0.00,0.00,0.00,0.00
2016-09-12 04:10:00,0,45895,0,0.00,0,0,0,0,38808,50000,3912,47274,0,0,0,0,0.00,0.00,0.00,0.00
2016-09-12 04:20:00,0,48095,0,0.00,0,0,0,0,38754,50000,3347,49841,0,0,0,0,0.00,0.00,0.00,0.00
2016-09-12 04:30:00,0,47803,0,0.00,0,0,0,0,43369,50000,2370,48780,0,0,0,0,0.00,0.00,0.00,0.00
2016-09-12 04:40:00,0,49196,0,0.00,0,0,0,0,46349,50000,1104,49710,0,0,0,0,0.00,0.00,0.00,0.00
2016-09-12 04:50:00,0,45196,0,0.00,0,0,0,0,39480,49866,3034,44976,0,0,0,0,0.00,0.00,0.00,0.00
2016-09-12 05:00:00,0,46103,0,0.00,0,0,0,0,35840,50000,4237,46240,0,0,0,0,0.00,0.00,0.00,0.00
2016-09-12 05:10:00,0,49438,0,0.00,0,0,0,0,48290,50000,630,49770,0,0,0,0,0.00,0.00,0.00,0.00
2016-09-12 05:20:00,0,47848,0,0.00,0,0,0,0,42770,50000,2505,48824,0,0,0,0,0.00,0.00,0.00,0.00
2016-09-12 05:30:00,0,46092,0,0.00,0,0,0,0,41994,50000,2819,46328,0,0,0,0,0.00,0.00,0.00,0.00
2016-09-12 05:40:00,0,47361,0,0.00,0,0,0,0,40388,50000,3072,48616,0,0,0,0,0.00,0.00,0.00,0.00
2016-09-12 05:50:00,0,46388,0,0.00,0,0,0,0,39804,50000,3126,47342,0,0,0,0,0.00,0.00,0.00,0.00
2016-09-12 06:00:00,0,40231,0,0.00,0,0,0,0,26650,50000,7942,41872,0,0,0,0,0.00,0.00,0.00,0.00
2016-09-12 06:10:00,0,47439,0,0.00,0,0,0,0,39831,50000,3009,47867,0,0,0,0,0.00,0.00,0.00,0.00
2016-09-12 06:20:00,0,49235,0,0.00,0,0,0,0,47485,50000,1012,50000,0,0,0,0,0.00,0.00,0.00,0.00
2016-09-12 06:30:00,0,48640,0,0.00,0,0,0,0,42654,50000,2273,50000,0,0,0,0,0.00,0.00,0.00,0.00
2016-09-12 06:40:00,0,48987,0,0.00,0,0,0,0,46405,50000,1193,49536,0,0,0,0,0.00,0.00,0.00,0.00
2016-09-12 06:50:00,0,48632,0,0.00,0,0,0,0,45874,50000,1671,49628,0,0,0,0,0.00,0.00,0.00,0.00
2016-09-12 07:00:00,0,49110,0,0.00,0,0,0,0,45948,50000,1446,50000,0,0,0,0,0.00,0.00,0.00,0.00
2016-09-12 07:10:00,0,49006,0,0.00,0,0,0,0,44207,50000,2001,50000,0,0,0,0,0.00,0.00,0.00,0.00
2016-09-12 07:20:00,0,48774,0,0.00,0,0,0,0,43056,50000,2200,50000,0,0,0,0,0.00,0.00,0.00,0.00
2016-09-12 07:30:00,0,50000,0,0.00,0,0,0,0,50000,50000,0,50000,0,0,0,0,0.00,0.00,0.00,0.00
2016-09-12 07:40:00,0,48351,0,0.00,0,0,0,0,45584,50000,1717,48832,0,0,0,0,0.00,0.00,0.00,0.00
2016-09-12 07:50:00,0,48323,40,0.33,0,0,0,0,41190,50000,2718,49752,0,61,26,51,0.00,1.35,0.52,0.10
2016-09-12 08:00:00,0,46202,38,0.10,0,0,0,0,36247,50000,5126,48901,0,61,25,51,0.00,0.45,0.13,0.08
2016-09-12 08:10:00,0,48261,15,0.01,0,0,0,0,46019,50000,1606,48362,0,51,23,0,0.00,0.15,0.05,0.00
2016-09-12 08:20:00,0,33739,49,2.67,0,0,0,0,20507,47231,7689,31722,0,62,24,61,0.00,10.20,2.93,1.98
2016-09-12 08:30:00,0,32095,61,2.06,0,0,0,0,21339,45403,7271,30555,61,61,0,61,0.35,6.55,1.81,1.67
2016-09-12 08:40:00,0,42108,57,0.29,0,0,0,0,31766,49834,6045,43082,51,61,5,61,0.05,1.05,0.30,0.17
2016-09-12 08:50:00,0,45955,43,0.10,0,0,0,0,38910,50000,3506,45898,0,61,22,51,0.00,0.40,0.13,0.03
2016-09-12 09:00:00,0,48215,0,0.00,0,0,0,0,44559,50000,2019,49366,0,0,0,0,0.00,0.00,0.00,0.00
2016-09-12 09:10:00,0,47994,0,0.00,0,0,0,0,41891,50000,2417,48522,0,0,0,0,0.00,0.00,0.00,0.00
2016-09-12 09:20:00,0,47106,0,0.00,0,0,0,0,41697,50000,3288,48644,0,0,0,0,0.00,0.00,0.00,0.00
2016-09-12 09:30:00,0,46230,0,0.00,0,0,0,0,40860,50000,3015,45303,0,0,0,0,0.00,0.00,0.00,0.00
2016-09-12 09:40:00,0,40070,43,0.20,0,0,0,0,27800,50000,8171,40621,0,61,22,51,0.00,0.75,0.24,0.10
2016-09-12 09:50:00,0,48647,6,0.00,0,0,0,0,45288,50000,1506,49033,0,61,18,0,0.00,0.00,0.00,0.00
2016-09-12 10:00:00,0,47078,0,0.00,0,0,0,0,42192,50000,2808,47505,0,0,0,0,0.00,0.00,0.00,0.00
2016-09-12 10:10:00,0,48632,0,0.00,0,0,0,0,43160,50000,2114,49686,0,0,0,0,0.00,0.00,0.00,0.00
2016-09-12 10:20:00,0,43388,40,0.27,0,0,0,0,33376,49716,4618,44991,0,61,26,51,0.00,2.20,0.65,0.05
2016-09-12 10:30:00,0,36676,61,1.12,0,0,0,0,29223,42537,4955,38156,61,61,0,61,0.10,4.45,1.58,0.20
2016-09-12 10:40:00,0,46767,22,0.01,0,0,0,0,42164,50000,2509,46282,0,61,28,0,0.00,0.05,0.02,0.00
2016-09-12 10:50:00,0,47387,0,0.00,0,0,0,0,44510,50000,1749,47154,0,0,0,0,0.00,0.00,0.00,0.00
2016-09-12 11:00:00,0,43221,52,0.06,0,0,0,0,37810,47802,3570,43996,0,61,18,61,0.00,0.20,0.08,0.03
2016-09-12 11:10:00,0,45014,54,0.14,0,0,0,0,39310,48341,3288,46682,51,61,5,51,0.00,0.45,0.16,0.05
2016-09-12 11:20:00,0,39001,48,0.53,0,0,0,0,26403,46334,5883,41048,0,61,24,61,0.00,3.40,0.99,0.17
2016-09-12 11:30:00,0,39593,22,0.17,0,0,0,0,24631,47420,7098,40770,0,61,28,0,0.00,0.95,0.29,0.00
2016-09-12 11:40:00,0,37184,55,0.10,0,0,0,0,29627,44568,4464,36755,51,61,5,51,0.00,0.30,0.08,0.08
2016-09-12 11:50:00,0,37380,52,0.17,0,0,0,0,30365,47944,5024,36698,51,61,3,51,0.00,0.55,0.15,0.15
2016-09-12 12:00:00,0,45763,43,0.02,0,0,0,0,40823,49783,2851,46103,0,61,28,61,0.00,0.05,0.02,0.00
2016-09-12 12:10:00,0,40206,0,0.00,0,0,0,0,33328,49447,5974,38580,0,0,0,0,0.00,0.00,0.00,0.00
2016-09-12 12:20:00,0,17966,61,5.81,0,0,0,0,11425,34486,6748,15482,61,61,0,61,0.00,9.85,3.10,6.80
2016-09-12 12:30:00,0,15525,61,8.94,0,0,0,0,8777,24614,5642,14118,61,62,0,61,0.90,22.70,9.12,4.32
2016-09-12 12:40:00,0,15719,61,5.58,0,0,0,0,10781,28349,5273,13804,61,61,0,61,3.05,9.10,1.99,5.00
2016-09-12 12:50:00,0,19435,61,3.61,0,0,0,0,14744,24579,3246,18620,61,61,0,61,1.15,9.95,2.31,3.15
2016-09-12 13:00:00,0,22492,56,1.31,0,0,0,0,20810,26100,1525,21876,52,61,4,52,0.60,3.30,0.78,0.95
2016-09-12 13:10:00,0,22785,61,1.23,0,0,0,0,17250,26909,2997,22942,61,61,0,61,0.45,3.00,0.92,0.75
2016-09-12 13:20:00,0,30673,53,0.62,0,0,0,0,23129,35737,3214,31356,51,61,4,52,0.10,1.45,0.48,0.48
2016-09-12 13:30:00,0,39844,26,0.03,0,0,0,0,33639,46519,4178,40470,0,61,27,26,0.00,0.20,0.06,0.00
2016-09-12 13:40:00,0,38476,0,0.00,0,0,0,0,32438,45200,3937,38808,0,0,0,0,0.00,0.00,0.00,0.00
2016-09-12 13:50:00,0,42315,0,0.00,0,0,0,0,36600,49937,4362,42563,0,0,0,0,0.00,0.00,0.00,0.00
2016-09-12 14:00:00,0,40086,23,0.21,0,0,0,0,32408,45767,4203,40568,0,61,28,0,0.00,0.60,0.26,0.00
2016-09-12 14:10:00,0,42084,26,0.16,0,0,0,0,29352,47963,5640,44182,0,52,26,26,0.00,0.75,0.27,0.00
2016-09-12 14:20:00,0,48814,0,0.00,0,0,0,0,45839,50000,1304,49042,0,0,0,0,0.00,0.00,0.00,0.00
2016-09-12 14:30:00,0,47273,0,0.00,0,0,0,0,41453,50000,3438,49664,0,0,0,0,0.00,0.00,0.00,0.00
2016-09-12 14:40:00,0,47689,0,0.00,0,0,0,0,43364,50000,2405,48395,0,0,0,0,0.00,0.00,0.00,0.00
2016-09-12 14:50:00,0,49158,0,0.00,0,0,0,0,43170,50000,2042,50000,0,0,0,0,0.00,0.00,0.00,0.00
2016-09-12 15:00:00,0,49396,0,0.00,0,0,0,0,47251,50000,838,49764,0,0,0,0,0.00,0.00,0.00,0.00
2016-09-12 15:10:00,0,46890,6,0.07,0,0,0,0,22613,50000,8112,50000,0,61,18,0,0.00,0.65,0.20,0.00
2016-09-12 15:20:00,0,41053,38,0.10,0,0,0,0,28699,50000,7528,42130,0,61,25,51,0.00,0.50,0.16,0.00
2016-09-12 15:30:00,0,46210,0,0.00,0,0,0,0,40147,50000,3376,47562,0,0,0,0,0.00,0.00,0.00,0.00
2016-09-12 15:40:00,0,49396,0,0.00,0,0,0,0,46493,50000,1085,50000,0,0,0,0,0.00,0.00,0.00,0.00
2016-09-12 15:50:00,0,48290,0,0.00,0,0,0,0,43428,50000,2378,49544,0,0,0,0,0.00,0.00,0.00,0.00
2016-09-12 16:00:00,0,48295,0,0.00,0,0,0,0,42745,50000,2529,49900,0,0,0,0,0.00,0.00,0.00,0.00
2016-09-12 16:10:00,0,48081,0,0.00,0,0,0,0,45007,50000,1934,48842,0,0,0,0,0.00,0.00,0.00,0.00
2016-09-12 16:20:00,0,48818,0,0.00,0,0,0,0,45712,50000,1340,49208,0,0,0,0,0.00,0.00,0.00,0.00
2016-09-12 16:30:00,0,49579,0,0.00,0,0,0,0,47394,50000,871,50000,0,0,0,0,0.00,0.00,0.00,0.00
2016-09-12 16:40:00,0,45777,0,0.00,0,0,0,0,37758,50000,3705,45998,0,0,0,0,0.00,0.00,0.00,0.00
2016-09-12 16:50:00,0,48396,0,0.00,0,0,0,0,43596,50000,2294,49850,0,0,0,0,0.00,0.00,0.00,0.00
2016-09-12 17:00:00,0,49997,0,0.00,0,0,0,0,49974,50000,8,50000,0,0,0,0,0.00,0.00,0.00,0.00
2016-09-12 17:10:00,0,49235,0,0.00,0,0,0,0,45306,50000,1407,49940,0,0,0,0,0.00,0.00,0.00,0.00
2016-09-12 17:20:00,0,49145,0,0.00,0,0,0,0,46110,50000,1289,50000,0,0,0,0,0.00,0.00,0.00,0.00
2016-09-12 17:30:00,0,48432,0,0.00,0,0,0,0,43936,50000,2244,49978,0,0,0,0,0.00,0.00,0.00,0.00
2016-09-12 17:40:00,0,47945,0,0.00,0,0,0,0,41035,50000,3399,50000,0,0,0,0,0.00,0.00,0.00,0.00
2016-09-12 17:50:00,0,47569,0,0.00,0,0,0,0,41290,50000,2805,48531,0,0,0,0,0.00,0.00,0.00,0.00
2016-09-12 18:00:00,0,47745,0,0.00,0,0,0,0,42358,50000,2421,48034,0,0,0,0,0.00,0.00,0.00,0.00
2016-09-12 18:10:00,0,49405,0,0.00,0,0,0,0,45167,50000,1436,50000,0,0,0,0,0.00,0.00,0.00,0.00
2016-09-12 18:20:00,0,46859,0,0.00,0,0,0,0,38812,50000,4082,49052,0,0,0,0,0.00,0.00,0.00,0.00
2016-09-12 18:30:00,0,45829,0,0.00,0,0,0,0,33481,50000,5578,49588,0,0,0,0,0.00,0.00,0.00,0.00
2016-09-12 18:40:00,0,48076,0,0.00,0,0,0,0,43822,50000,1982,48200,0,0,0,0,0.00,0.00,0.00,0.00
2016-09-12 18:50:00,0,48654,0,0.00,0,0,0,0,42426,50000,2253,49834,0,0,0,0,0.00,0.00,0.00,0.00
2016-09-12 19:00:00,0,49265,0,0.00,0,0,0,0,44075,50000,1742,49954,0,0,0,0,0.00,0.00,0.00,0.00
2016-09-12 19:10:00,0,49500,0,0.00,0,0,0,0,47659,50000,740,49883,0,0,0,0,0.00,0.00,0.00,0.00
2016-09-12 19:20:00,0,48812,0,0.00,0,0,0,0,45224,50000,1640,50000,0,0,0,0,0.00,0.00,0.00,0.00
2016-09-12 19:30:00,0,49568,0,0.00,0,0,0,0,47056,50000,886,50000,0,0,0,0,0.00,0.00,0.00,0.00
2016-09-12 19:40:00,0,50000,0,0.00,0,0,0,0,50000,50000,0,50000,0,0,0,0,0.00,0.00,0.00,0.00
2016-09-12 19:50:00,0,49525,0,0.00,0,0,0,0,47704,50000,749,50000,0,0,0,0,0.00,0.00,0.00,0.00
2016-09-12 20:00:00,0,49357,0,0.00,0,0,0,0,45610,50000,1373,50000,0,0,0,0,0.00,0.00,0.00,0.00
2016-09-12 20:10:00,0,47815,0,0.00,0,0,0,0,39287,50000,3360,50000,0,0,0,0,0.00,0.00,0.00,0.00
2016-09-12 20:20:00,0,47991,0,0.00,0,0,0,0,44603,50000,2080,48991,0,0,0,0,0.00,0.00,0.00,0.00
2016-09-12 20:30:00,0,46501,0,0.00,0,0,0,0,37847,50000,4087,48148,0,0,0,0,0.00,0.00,0.00,0.00
2016-09-12 20:40:00,0,48571,0,0.00,0,0,0,0,43949,50000,1993,49986,0,0,0,0,0.00,0.00,0.00,0.00
2016-09-12 20:50:00,0,48651,0,0.00,0,0,0,0,44074,50000,2136,50000,0,0,0,0,0.00,0.00,0.00,0.00
2016-09-12 21:00:00,0,49921,0,0.00,0,0,0,0,49503,50000,165,50000,0,0,0,0,0.00,0.00,0.00,0.00
2016-09-12 21:10:00,0,49396,0,0.00,0,0,0,0,47406,50000,969,50000,0,0,0,0,0.00,0.00,0.00,0.00
2016-09-12 21:20:00,0,49464,0,0.00,0,0,0,0,46382,50000,1151,50000,0,0,0,0,0.00,0.00,0.00,0.00
2016-09-12 21:30:00,0,49769,0,0.00,0,0,0,0,48920,50000,375,50000,0,0,0,0,0.00,0.00,0.00,0.00
2016-09-12 21:40:00,0,46895,0,0.00,0,0,0,0,38280,50000,3659,47986,0,0,0,0,0.00,0.00,0.00,0.00
2016-09-12 21:50:00,0,48922,0,0.00,0,0,0,0,43104,50000,2090,50000,0,0,0,0,0.00,0.00,0.00,0.00
2016-09-12 22:00:00,0,47098,0,0.00,0,0,0,0,41883,50000,2534,47808,0,0,0,0,0.00,0.00,0.00,0.00
2016-09-12 22:10:00,0,47899,0,0.00,0,0,0,0,38623,50000,3738,50000,0,0,0,0,0.00,0.00,0.00,0.00
2016-09-12 22:20:00,0,46940,0,0.00,0,0,0,0,36107,50000,4237,49104,0,0,0,0,0.00,0.00,0.00,0.00
2016-09-12 22:30:00,0,47782,0,0.00,0,0,0,0,43698,50000,2383,48500,0,0,0,0,0.00,0.00,0.00,0.00
2016-09-12 22:40:00,0,46258,0,0.00,0,0,0,0,42184,50000,2641,45772,0,0,0,0,0.00,0.00,0.00,0.00
2016-09-12 22:50:00,0,46124,0,0.00,0,0,0,0,37024,50000,4649,48116,0,0,0,0,0.00,0.00,0.00,0.00
2016-09-12 23:00:00,0,48610,0,0.00,0,0,0,0,44948,50000,1726,49396,0,0,0,0,0.00,0.00,0.00,0.00
2016-09-12 23:10:00,0,47089,0,0.00,0,0,0,0,40453,50000,3195,47774,0,0,0,0,0.00,0.00,0.00,0.00
2016-09-12 23:20:00,0,45978,0,0.00,0,0,0,0,42692,50000,2593,45564,0,0,0,0,0.00,0.00,0.00,0.00
2016-09-12 23:30:00,0,45918,0,0.00,0,0,0,0,38029,50000,3488,46873,0,0,0,0,0.00,0.00,0.00,0.00
2016-09-12 23:40:00,0,47256,0,0.00,0,0,0,0,37869,50000,3793,48750,0,0,0,0,0.00,0.00,0.00,0.00
2016-09-12 23:50:00,0,49472,0,0.00,0,0,0,0,46434,50000,1134,50000,0,0,0,0,0.00,0.00,0.00,0.00
